sat.trackr.live / text

‹ back to catalog

QIANFAN-124

NORAD 68651 · 2026-075R

PAYLOAD ACTIVE UNKNOWN

§ Identity

Operator
Country
PRC
Launch date
2026-04-07
Launch site
WSC
Launch vehicle
Mass (kg)
RCS (m²)

External: N2YO · Heavens-Above · Gunter

§ Orbital elements

Epoch: 2026-09-19T21:56:09.617280Z

Period
106.59 min
Inclination
88.9864°
Eccentricity
0.0002148
Mean motion
13.51026888 rev/d
Perigee alt
1,066.9 km
Apogee alt
1,070.1 km
Semi-major
7,446.6 km
B*
4.6166e-5
RAAN
311.3223°
Arg perigee
86.3558°
Mean anomaly
273.7839°
Rev number
2,260

§ Raw data

QIANFAN-1241 68651U 26075R   26262.91400020  .00000042  00000+0  46166-4 0  99922 68651  88.9864 311.3223 0002148  86.3558 273.7839 13.51026888 22607

JSON: /api/v1/satellites/68651 · /tle

For live sub-satellite position, see the globe view (requires WebGL).

§ Visibility from observer

Set your observer location to see the next 7 days of passes ≥ 10°. The values pass through the URL so the page stays shareable.

No JS? Fill the form by hand. The geolocation button needs JavaScript.